IRIDIUM 33 DEB, 34375

Orbit data source: Space-Track

IRIDIUM 33 DEB, 34375 is space debris in LEO originally from a launch on Sun, 14 Sep 1997 UTC launched from the Tyuratam Missile And Space Complex (TTMTR). The debris from Iridium 33, an American commercial communications satellite, has been tracked extensively since its accidental collision with the defunct Russian satellite Cosmos 2251 in 2009. This event, occurring at high speed in low Earth orbit (LEO), generated thousands of pieces of space debris, significantly increasing the risk of further collisions. The Iridium 33 debris cloud has impacted space traffic management and orbital debris mitigation strategies, making it a subject of ongoing study in space situational awareness.

Loading next visibility...
Identifier
34375, 1997-051FT
Orbit
LEO
Country
Flag of USUS
Related business
Manufacturer
Unknown
Mission
Spacecraft
Bus & Motor
Unknown
Mass
Unknown
Launch date (UTC)
1997-09-14 (28 years ago)
Launch vehicle
Unknown
Launch site
Tyuratam Missile And Space Complex (TTMTR)
Object type
Payload
Rocket body
Debris
Shape & HBR
Unknown shape, 0.1 m
Radar Cross Section
Small (<0.1 m²)

Expand to show TLE details & history
Last TLE update: 2 days ago

TLE from 2 days ago
0 IRIDIUM 33 DEB
1 34375U 97051FT  26036.82023677  .00001382  00000-0  63325-3 0  9992
2 34375  86.4359 160.5130 0100252 312.5884 201.0498 14.18114093874922
Epoch: 2026-02-05T19:41Z
TLE epoch observation values (Epoch: 2026-02-05T19:41:08.456Z)
Latitude
26.74849°
Longitude
-92.52875°
Altitude
902.672 km
Speed
7.368 km/s
True Right ascension
22h 34m 53s
True Declination
26° 36' 48"
Sunlit
Object was in daylight at epoch
Visualization orbit readout
Latitude
Unknown
Longitude
Unknown
Altitude
Unknown
Speed
Unknown
Apparent Right ascension
Unknown
Apparent Declination
Unknown
Sunlit
N/A
Visualization observer readout
Local Sidereal Time
12:54:16
Azimuth
Unknown
Elevation
Unknown
Doppler factor
Unknown
Orbital elements
Apogee altitude
900.974 km
Perigee altitude
756.474 km
Semi-major axis
7,206.861 km
Eccentricity
0.01003
Inclination
86.4359°
RAAN
160.513°
Arg. of periapsis
312.5884°
True anomaly
200.64195°
Mean anomaly
201.0498°
Eccentric anomaly
200.8454°
Mean motion
3.54751 °/min
Orbital period
101.48 mins
BSTAR
0.00063325
Loading maneuver chart data...
Computing Atmospheric mass density...

Documentation

Showing up to 5 results
|